TimeMST,TemperatureF,Dew PointF,Humidity,Sea Level PressureIn,VisibilityMPH,Wind Direction,Wind SpeedMPH,Gust SpeedMPH,PrecipitationIn,Events,Conditions,WindDirDegrees,DateUTC
12:54 AM,41.0,17.1,38,29.87,10.0,Calm,Calm,-,N/A,,Clear,0,2013-03-07 07:54:00
1:54 AM,34.0,17.1,50,29.89,10.0,Calm,Calm,-,N/A,,Clear,0,2013-03-07 08:54:00
2:54 AM,32.0,17.1,54,29.88,10.0,Calm,Calm,-,N/A,,Clear,0,2013-03-07 09:54:00
3:54 AM,30.9,17.1,57,29.88,10.0,SSE,3.5,-,N/A,,Clear,160,2013-03-07 10:54:00
4:54 AM,28.0,16.0,61,29.91,10.0,Calm,Calm,-,N/A,,Clear,0,2013-03-07 11:54:00
5:54 AM,28.9,18.0,64,29.93,10.0,Calm,Calm,-,N/A,,Clear,0,2013-03-07 12:54:00
6:54 AM,30.9,19.0,61,29.96,10.0,Calm,Calm,-,N/A,,Clear,0,2013-03-07 13:54:00
7:54 AM,37.0,19.9,50,29.97,10.0,SW,3.5,-,N/A,,Clear,230,2013-03-07 14:54:00
8:54 AM,46.0,21.9,39,29.93,10.0,Calm,Calm,-,N/A,,Clear,0,2013-03-07 15:54:00
9:54 AM,55.0,21.0,27,29.90,10.0,Calm,Calm,-,N/A,,Clear,0,2013-03-07 16:54:00
10:54 AM,62.1,17.1,18,29.85,10.0,Calm,Calm,-,N/A,,Clear,0,2013-03-07 17:54:00
11:54 AM,66.0,8.1,10,29.84,10.0,West,11.5,24.2,N/A,,Clear,270,2013-03-07 18:54:00
12:54 PM,66.9,10.9,11,29.81,10.0,SSW,15.0,23.0,N/A,,Clear,210,2013-03-07 19:54:00
1:54 PM,68.0,14.0,12,29.80,10.0,WSW,18.4,28.8,N/A,,Clear,240,2013-03-07 20:54:00
2:54 PM,66.9,10.0,11,29.80,10.0,SW,17.3,31.1,N/A,,Clear,230,2013-03-07 21:54:00
3:54 PM,66.0,7.0,10,29.80,10.0,WSW,18.4,28.8,N/A,,Clear,240,2013-03-07 22:54:00
4:54 PM,64.0,10.9,13,29.83,10.0,WSW,20.7,26.5,N/A,,Clear,240,2013-03-07 23:54:00
5:54 PM,59.0,9.0,14,29.85,10.0,SW,19.6,27.6,N/A,,Clear,230,2013-03-08 00:54:00
6:54 PM,54.0,12.0,19,29.88,10.0,WSW,13.8,-,N/A,,Clear,240,2013-03-08 01:54:00
7:54 PM,51.1,14.0,23,29.89,10.0,WSW,12.7,-,N/A,,Clear,240,2013-03-08 02:54:00
8:54 PM,46.9,14.0,27,29.88,10.0,SW,9.2,-,N/A,,Clear,230,2013-03-08 03:54:00
9:54 PM,45.0,14.0,29,29.87,10.0,SW,10.4,-,N/A,,Clear,230,2013-03-08 04:54:00
10:54 PM,43.0,14.0,31,29.86,10.0,Calm,Calm,-,N/A,,Clear,0,2013-03-08 05:54:00
11:54 PM,41.0,15.1,35,29.84,10.0,Calm,Calm,-,N/A,,Clear,0,2013-03-08 06:54:00